Regional Weather Roundup
Issued by NWS

Home | Current Version | Previous Version | Graphics & Text | Print | Product List | Glossary On
Versions: 1 2 3 4 5 6 7 8 9 10 11 12 13 14 15 16 17 18 19 20 21 22 23 24 25 26 27 28 29 30 31 32 33 34 35 36 37 38 39 40 41 42 43 44 45 46 47 48 49 50
000
ASUS43 KIND 201959
RWRIN

WEATHER ROUNDUP FOR INDIANA
NATIONAL WEATHER SERVICE INDIANAPOLIS IN
300 PM EST MON NOV 20 2017

NOTE: "FAIR" INDICATES FEW OR NO CLOUDS BELOW 12,000 FEET WITH NO
SIGNIFICANT WEATHER AND/OR OBSTRUCTIONS TO VISIBILITY.

* - STATION DOES NOT REPORT WEATHER SUCH AS PRECIPITATION OR FOG.

+ - STATION NOT QUALITY CONTROLLED BY THE NATIONAL WEATHER SERVICE.
    USE DATA WITH CAUTION...ESPECIALLY DEWPOINT AND RELATIVE
    HUMIDITY OBSERVATIONS.

INZ001>003-010>013-019-020-202100-
NORTHWEST INDIANA

CITY           SKY/WX    TMP DP  RH WIND       PRES   REMARKS
GARY /AIRPORT/ MOSUNNY   54  30  40 SW18G35   29.84F
KNOX *+        SUNNY     50  32  50 SW24G30   29.88F
LA PORTE +     SUNNY     50  32  51 SW21G28   29.86F
MONTICELLO +   SUNNY     50  30  45 S21       29.92F

$$

LMZ046-743>745-202100-
SOUTHERN LAKE MICHIGAN

STATION/POSITION TIME  TEMP    WIND        PRES    WAVE
                       AIR SEA DIR/SP/G            HT
                 (UTC) (F)     (DEG/KT/KT) (MB)    (FT)
BURNS HARBOR     1940   51     220/ 21/ 28 1010.8F
MICHIGAN CITY    1930   50     180/ 18/ 23   N/A

$$

INZ004-005-014>016-021>024-202100-
NORTH CENTRAL INDIANA

CITY           SKY/WX    TMP DP  RH WIND       PRES   REMARKS
ELKHART        SUNNY     50  28  43 SW17G28   29.86F
GOSHEN         SUNNY     49  28  44 S20G35    29.88F
PERU/GRISSOM   SUNNY     50  29  45 SW20G32   29.94F
SOUTH BEND     SUNNY     50  30  46 SW23G33   29.86F
WARSAW +       SUNNY     50  28  43 SW15G25   29.91F

$$

INZ006>009-017-018-025>027-202100-
NORTHEAST INDIANA

CITY           SKY/WX    TMP DP  RH WIND       PRES   REMARKS
AUBURN +       SUNNY     50  27  40 SW13G22   29.93F
FORT WAYNE     MOSUNNY   49  31  49 SW17G25   29.95F
KENDALLVILLE + SUNNY     48  30  49 SW20G33   29.91F

$$

INZ028-029-035-036-043>045-051>053-202100-
WEST CENTRAL INDIANA

CITY           SKY/WX    TMP DP  RH WIND       PRES   REMARKS
LAFAYETTE      SUNNY     50  30  46 S16G26    29.94F
TERRE HAUTE    CLOUDY    51  29  42 S18G26    30.01F

$$

INZ030>032-037>040-046>048-054>057-064-065-202100-
CENTRAL INDIANA

CITY           SKY/WX    TMP DP  RH WIND       PRES   REMARKS
COLUMBUS       MOSUNNY   48  19  32 S16G24    30.06F
FRANKFORT +    SUNNY     52  32  47 SW16G25   29.98F
GREENWOOD *+   SUNNY     52  26  36 SW10G18   30.03F
INDIANAPOLIS   MOSUNNY   49  26  41 S14       30.02F
-EAGLE CREEK   SUNNY     50  23  34 S15G23    30.00F
KOKOMO +       SUNNY     49  29  46 SW20G31   29.97F
MT COMFORT *+  SUNNY     48  32  53 S15       30.02F
SHELBYVILLE    SUNNY     49  25  39 S13       30.03F

$$

INZ033-034-041-042-049-050-058-059-202100-
EAST CENTRAL INDIANA

CITY           SKY/WX    TMP DP  RH WIND       PRES   REMARKS
MUNCIE         SUNNY     48  26  42 S14G30    30.00F
RICHMOND +     SUNNY     45  27  49 S18       30.06F

$$

INZ060-061-067>069-081>083-085>088-202100-
SOUTHWEST INDIANA

CITY           SKY/WX    TMP DP  RH WIND       PRES   REMARKS
EVANSVILLE     SUNNY     50  27  40 S12       30.09F
HUNTINGBURG +  SUNNY     50  25  37 S13G20    30.09F

$$

INZ062-063-066-070>080-084-089>092-202100-
SOUTH CENTRAL AND SOUTHEAST INDIANA

CITY           SKY/WX    TMP DP  RH WIND       PRES   REMARKS
BLOOMINGTON    SUNNY     50  24  36 S15       30.05F
MADISON *+     SUNNY     48  23  37 S9        30.11F
SEYMOUR +      SUNNY     52  27  37 S15       30.08

$$





USA.gov is the U.S. government's official web portal to all federal, state and local government web resources and services.